Cordova, AK

11:23 PM AKDT on March 24, 2017 (GMT -0800)
Cordova-Smith

Weather History for PACV - February, 2013

Change the Weather History Date:

Friday, February 15, 2013

  Actual Average Record
Temperature  
Mean Temperature 35 °F -  
Max Temperature 37 °F 33 °F 46 °F (1978)
Min Temperature 33 °F 17 °F -10 °F (1954)
Degree Days  
Heating Degree Days 30    
Moisture  
Dew Point 34 °F    
Average Humidity 93    
Maximum Humidity 100    
Minimum Humidity 86    
Precipitation  
Precipitation 0.73 in - - ()
Snow  
Snow 0.00 in - - ()
Snow Depth 3.00 in    
Sea Level Pressure  
Sea Level Pressure 29.67 in    
Wind  
Wind Speed 6 mph (East)    
Max Wind Speed 13 mph    
Max Gust Speed 18 mph    
Visibility 7 miles    
Events Rain , Snow    
Averages and records for this station are not official NWS values.
T = Trace of Precipitation, MM = Missing Value Source: NWS Daily Summary

Daily Weather History Graph

Daily Weather History Graph

Search for Another Location

Airport or City:

Trip Planner

Search our weather history database for the weather conditions in past years. The results will help you decide how hot, cold, wet, or windy it might be!

Date:

Astronomy

Feb. 15, 2013 Rise Set
Actual Time 8:20 AM AKST 5:32 PM AKST
Civil Twilight 7:35 AM AKST 6:17 PM AKST
Nautical Twilight 6:46 AM AKST 7:06 PM AKST
Astronomical Twilight 5:57 AM AKST 7:55 PM AKST
Moon 9:17 AM AKST (2/15) 12:22 AM AKST (2/15)
Length of Visible Light 10h 41m
Length of Day
9h 12m
Waxing Crescent, 31% of the Moon is Illuminated
Feb 15
Waxing Crescent
Feb 17
First Quarter
Feb 25
Full
Mar 4
Last Quarter
Mar 11
New

Hourly Weather History & Observations

Time (AKST) Temp. Windchill Dew Point Humidity Pressure Visibility Wind Dir Wind Speed Gust Speed Precip Events Conditions
12:04 AM 37.4 °F 29.3 °F 33.8 °F 87% 29.51 in 7.0 mi East 12.7 mph 18.4 mph 0.00 in Rain Light Rain
12:53 AM 37.0 °F 32.4 °F 34.0 °F 89% 29.52 in 9.0 mi East 5.8 mph - 0.02 in Rain Light Rain
1:53 AM 37.0 °F 31.0 °F 33.1 °F 86% 29.53 in 10.0 mi NE 8.1 mph - 0.03 in Rain Light Rain
3:53 AM 36.0 °F 32.1 °F 33.1 °F 89% 29.58 in 8.0 mi East 4.6 mph - 0.05 in Rain Light Rain
4:12 AM 35.6 °F 31.7 °F 33.8 °F 93% 29.58 in 7.0 mi ENE 4.6 mph - 0.03 in Rain Light Rain
4:53 AM 35.1 °F 29.3 °F 32.0 °F 89% 29.59 in 6.0 mi East 6.9 mph - 0.10 in Rain , Snow Light Rain
5:53 AM 34.0 °F 27.2 °F 33.1 °F 96% 29.60 in 6.0 mi ENE 8.1 mph - 0.09 in Rain , Snow Light Rain
6:53 AM 36.0 °F 29.0 °F 34.0 °F 93% 29.61 in 6.0 mi ESE 9.2 mph - 0.04 in Rain Light Rain
7:17 AM 35.6 °F 28.6 °F 33.8 °F 93% 29.61 in 2.5 mi ESE 9.2 mph - 0.01 in Rain Light Rain
7:32 AM 35.6 °F 29.9 °F 33.8 °F 93% 29.62 in 4.0 mi East 6.9 mph - 0.01 in Rain Light Rain
7:43 AM 35.6 °F 29.9 °F 33.8 °F 93% 29.62 in 7.0 mi ESE 6.9 mph - 0.01 in Rain Light Rain
7:53 AM 36.0 °F 31.1 °F 35.1 °F 97% 29.62 in 10.0 mi East 5.8 mph - 0.01 in Rain Light Rain
8:41 AM 37.4 °F 32.8 °F 35.6 °F 93% 29.63 in 8.0 mi East 5.8 mph - 0.01 in Rain Light Rain
8:53 AM 36.0 °F 30.3 °F 35.1 °F 97% 29.64 in 6.0 mi ESE 6.9 mph - 0.02 in Rain Light Rain
9:13 AM 35.6 °F 29.9 °F 33.8 °F 93% 29.64 in 5.0 mi East 6.9 mph - 0.01 in Rain Light Rain
9:41 AM 35.6 °F 30.7 °F 33.8 °F 93% 29.64 in 2.0 mi NE 5.8 mph - 0.06 in Rain , Snow Rain
9:48 AM 33.8 °F 28.6 °F 33.8 °F 100% 29.65 in 1.8 mi ENE 5.8 mph - 0.08 in Rain , Snow Rain
9:53 AM 34.0 °F 28.0 °F 32.0 °F 92% 29.65 in 1.8 mi ENE 6.9 mph - 0.08 in Rain Light Rain
9:57 AM 33.8 °F 27.0 °F 32.0 °F 93% 29.65 in 3.0 mi ENE 8.1 mph - 0.00 in Rain Light Rain
10:26 AM 35.6 °F 29.9 °F 33.8 °F 93% 29.65 in 10.0 mi East 6.9 mph - 0.00 in   Overcast
10:53 AM 36.0 °F 31.1 °F 34.0 °F 93% 29.66 in 7.0 mi East 5.8 mph - 0.01 in Rain Light Rain
11:53 AM 37.0 °F - 34.0 °F 89% 29.67 in 10.0 mi Calm Calm - 0.01 in Rain Light Rain
12:24 PM 37.4 °F 33.8 °F 35.6 °F 93% 29.67 in 8.0 mi East 4.6 mph - 0.00 in Rain Light Rain
12:46 PM 37.4 °F 32.8 °F 35.6 °F 93% 29.68 in 5.0 mi SSW 5.8 mph - 0.01 in Rain Light Rain
12:53 PM 37.0 °F - 35.1 °F 93% 29.69 in 3.0 mi Calm Calm - 0.02 in Rain Rain
1:18 PM 37.4 °F - 33.8 °F 87% 29.69 in 6.0 mi Calm Calm - 0.04 in Rain Light Rain
1:53 PM 37.0 °F - 35.1 °F 93% 29.69 in 10.0 mi Calm Calm - 0.05 in Rain Light Rain
1:57 PM 37.4 °F - 35.6 °F 93% 29.69 in 10.0 mi Calm Calm - 0.00 in Rain Light Rain
2:06 PM 37.4 °F - 35.6 °F 93% 29.69 in 10.0 mi Calm Calm - 0.00 in Rain Light Rain
2:35 PM 37.4 °F - 35.6 °F 93% 29.70 in 4.0 mi Calm Calm - 0.01 in Rain Light Rain
2:42 PM 37.4 °F 34.9 °F 35.6 °F 93% 29.70 in 4.0 mi ESE 3.5 mph - 0.02 in Rain Light Rain
2:53 PM 36.0 °F 32.1 °F 35.1 °F 97% 29.70 in 7.0 mi ESE 4.6 mph - 0.02 in Rain Light Rain
2:58 PM 35.6 °F 31.7 °F 33.8 °F 93% 29.70 in 7.0 mi SE 4.6 mph - 0.01 in Rain Light Rain
3:09 PM 35.6 °F 29.9 °F 33.8 °F 93% 29.70 in 10.0 mi ESE 6.9 mph - 0.01 in Rain Light Rain
3:53 PM 36.0 °F 32.1 °F 34.0 °F 93% 29.71 in 10.0 mi ESE 4.6 mph - 0.01 in Rain Light Rain
4:01 PM 35.6 °F 31.7 °F 33.8 °F 93% 29.71 in 9.0 mi ESE 4.6 mph - 0.00 in Rain Light Rain
4:15 PM 35.6 °F 32.8 °F 33.8 °F 93% 29.71 in 10.0 mi ESE 3.5 mph - 0.00 in Rain Light Rain
4:20 PM 35.6 °F 32.8 °F 33.8 °F 93% 29.71 in 10.0 mi ESE 3.5 mph - 0.00 in Rain Light Rain
4:53 PM 36.0 °F - 34.0 °F 93% 29.73 in 4.0 mi Calm Calm - 0.05 in Rain Light Rain
5:53 PM 35.1 °F 31.0 °F 33.1 °F 92% 29.73 in 8.0 mi ESE 4.6 mph - 0.02 in Rain Light Rain
6:53 PM 34.0 °F - 32.0 °F 92% 29.75 in 2.5 mi Calm Calm - 0.05 in Snow Light Snow
7:00 PM 33.8 °F - 32.0 °F 93% 29.74 in 2.5 mi Calm Calm - 0.01 in Snow Light Snow
7:07 PM 33.8 °F - 32.0 °F 93% 29.74 in 4.0 mi Calm Calm - 0.01 in Snow Light Snow
7:53 PM 33.1 °F - 32.0 °F 96% 29.75 in 10.0 mi Calm Calm - 0.03 in Rain Light Rain
8:53 PM 33.1 °F - 32.0 °F 96% 29.76 in 5.0 mi Calm Calm - 0.02 in Snow Light Snow
9:53 PM 34.0 °F 31.0 °F 33.1 °F 96% 29.77 in 8.0 mi East 3.5 mph - 0.00 in   Overcast
10:00 PM 33.8 °F 30.8 °F 33.8 °F 100% 29.77 in 6.0 mi ESE 3.5 mph - N/A   Overcast
10:53 PM 35.1 °F 32.2 °F 33.1 °F 92% 29.78 in 10.0 mi ESE 3.5 mph - N/A   Overcast
11:53 PM 35.1 °F 32.2 °F 33.1 °F 92% 29.82 in 10.0 mi SSE 3.5 mph - N/A   Overcast